Menomonie, WI

6:37 AM CDT on October 21, 2017 (GMT -0500)
Menomonie

Weather History for KLUM - September, 2014

Change the Weather History Date:

Wednesday, September 3, 2014

  Actual Average (KEAU) Record (KEAU)
Temperature  
Mean Temperature 66 °F -  
Max Temperature 76 °F 76 °F 98 °F (1929)
Min Temperature 56 °F 54 °F 32 °F (1974)
Growing Degree Days 16 (Base 50)    
Moisture  
Dew Point 61 °F    
Average Humidity 87    
Maximum Humidity 98    
Minimum Humidity 69    
Precipitation  
Precipitation 0.90 in - - ()
Sea Level Pressure  
Sea Level Pressure 29.86 in    
Wind  
Wind Speed 3 mph (ESE)    
Max Wind Speed 13 mph    
Max Gust Speed -    
Visibility 10 miles    
Events Rain , Thunderstorm    
Averages and records for this station are not official NWS values.
T = Trace of Precipitation, MM = Missing Value Source: NWS Daily Summary

Daily Weather History Graph

Daily Weather History Graph

Search for Another Location

Airport or City:

Trip Planner

Search our weather history database for the weather conditions in past years. The results will help you decide how hot, cold, wet, or windy it might be!

Date:

Astronomy

Sep. 03, 2014 Rise Set
Actual Time 6:32 AM CDT 7:40 PM CDT
Civil Twilight 6:01 AM CDT 8:10 PM CDT
Nautical Twilight 5:25 AM CDT 8:46 PM CDT
Astronomical Twilight 4:47 AM CDT 9:24 PM CDT
Moon 3:31 PM CDT (9/3) 12:18 AM CDT (9/3)
Length of Visible Light 14h 08m
Length of Day
13h 08m
Waxing Gibbous, 64% of the Moon is Illuminated
Sep 3
Waxing Gibbous
Sep 8
Full
Sep 15
Last Quarter
Sep 24
New
Oct 1
First Quarter

Hourly Weather History & Observations

Time (CDT) Temp. Dew Point Humidity Pressure Visibility Wind Dir Wind Speed Gust Speed Precip Events Conditions
12:15 AM 59.7 °F 56.3 °F 88% 29.90 in 10.0 mi Calm Calm - N/A   Clear
12:35 AM 61.0 °F 56.1 °F 84% 29.90 in 10.0 mi Calm Calm - N/A   Clear
12:55 AM 61.2 °F 56.1 °F 83% 29.90 in 10.0 mi Calm Calm - N/A   Clear
1:15 AM 60.1 °F 56.3 °F 87% 29.91 in 10.0 mi Calm Calm - N/A   Clear
1:35 AM 60.4 °F 56.3 °F 86% 29.91 in 10.0 mi Calm Calm - N/A   Clear
1:55 AM 59.9 °F 56.5 °F 88% 29.91 in 10.0 mi Calm Calm - N/A   Clear
2:15 AM 59.5 °F 56.5 °F 90% 29.91 in 10.0 mi Calm Calm - N/A   Clear
2:35 AM 60.3 °F 56.7 °F 88% 29.91 in 10.0 mi Calm Calm - N/A   Clear
2:55 AM 59.4 °F 56.7 °F 91% 29.90 in 10.0 mi South 3.5 mph - N/A   Clear
3:15 AM 59.5 °F 57.0 °F 91% 29.90 in 10.0 mi Calm Calm - N/A   Clear
3:35 AM 60.1 °F 57.4 °F 91% 29.90 in 10.0 mi SSE 5.8 mph - N/A   Clear
3:55 AM 60.1 °F 57.4 °F 91% 29.91 in 10.0 mi South 4.6 mph - N/A   Clear
4:15 AM 60.3 °F 57.7 °F 91% 29.91 in 10.0 mi SSE 5.8 mph - N/A   Clear
4:35 AM 60.1 °F 57.4 °F 91% 29.91 in 10.0 mi SSE 4.6 mph - N/A   Clear
4:55 AM 59.0 °F 56.5 °F 91% 29.91 in 10.0 mi SE 3.5 mph - N/A   Clear
5:15 AM 57.6 °F 55.6 °F 93% 29.91 in 10.0 mi ESE 4.6 mph - N/A   Clear
5:35 AM 57.2 °F 55.8 °F 95% 29.91 in 10.0 mi ESE 5.8 mph - N/A   Clear
5:55 AM 57.2 °F 55.9 °F 96% 29.91 in 10.0 mi East 4.6 mph - N/A   Clear
6:15 AM 56.8 °F 55.6 °F 96% 29.91 in 10.0 mi ESE 4.6 mph - N/A   Clear
6:35 AM 56.3 °F 55.2 °F 96% 29.91 in 10.0 mi ESE 4.6 mph - N/A   Clear
6:55 AM 56.3 °F 55.4 °F 97% 29.92 in 10.0 mi ESE 3.5 mph - N/A   Clear
7:15 AM 57.2 °F 56.3 °F 97% 29.91 in 10.0 mi ESE 4.6 mph - N/A   Clear
7:35 AM 57.4 °F 56.3 °F 96% 29.92 in 10.0 mi ESE 4.6 mph - N/A   Clear
7:55 AM 58.1 °F 56.8 °F 96% 29.92 in 10.0 mi East 3.5 mph - N/A   Clear
8:15 AM 58.5 °F 57.2 °F 96% 29.93 in 10.0 mi ESE 3.5 mph - N/A   Clear
8:35 AM 59.4 °F 57.7 °F 94% 29.93 in 10.0 mi Calm Calm - N/A   Clear
8:55 AM 59.9 °F 58.3 °F 94% 29.92 in 10.0 mi East 4.6 mph - N/A   Clear
9:15 AM 60.8 °F 58.6 °F 93% 29.91 in 10.0 mi East 4.6 mph - N/A   Clear
9:35 AM 61.7 °F 59.4 °F 92% 29.90 in 10.0 mi East 4.6 mph - N/A   Clear
9:55 AM 62.2 °F 59.7 °F 91% 29.93 in 10.0 mi Calm Calm - N/A   Clear
10:15 AM 62.8 °F 59.9 °F 90% 29.93 in 10.0 mi Calm Calm - N/A   Clear
10:35 AM 63.7 °F 61.0 °F 91% 29.92 in 10.0 mi Calm Calm - N/A Rain Light Rain
10:55 AM 64.4 °F 61.5 °F 90% 29.93 in 10.0 mi Calm Calm - N/A Rain Light Rain
11:15 AM 65.3 °F 61.9 °F 89% 29.92 in 10.0 mi East 3.5 mph - N/A Rain Light Rain
11:35 AM 66.0 °F 62.1 °F 87% 29.93 in 10.0 mi Calm Calm - N/A   Scattered Clouds
11:55 AM 66.2 °F 62.1 °F 86% 29.93 in 10.0 mi Calm Calm - N/A   Mostly Cloudy
12:15 PM 66.7 °F 62.6 °F 86% 29.93 in 10.0 mi Calm Calm - N/A   Overcast
12:35 PM 66.6 °F 63.9 °F 91% 29.91 in 10.0 mi ENE 5.8 mph - N/A Rain Light Rain
12:55 PM 66.6 °F 64.2 °F 92% 29.89 in 10.0 mi East 6.9 mph - 0.01 in Rain Light Rain
1:15 PM 68.7 °F 65.3 °F 89% 29.88 in 10.0 mi East 5.8 mph - N/A   Scattered Clouds
1:35 PM 69.3 °F 64.2 °F 84% 29.89 in 10.0 mi East 4.6 mph - N/A   Mostly Cloudy
1:55 PM 69.8 °F 64.2 °F 82% 29.89 in 10.0 mi ENE 4.6 mph - N/A Rain Rain
2:15 PM 69.8 °F 65.3 °F 86% 29.87 in 10.0 mi East 8.1 mph - N/A   Mostly Cloudy
2:35 PM 70.2 °F 66.0 °F 87% 29.85 in 10.0 mi East 5.8 mph - N/A   Scattered Clouds
2:55 PM 71.1 °F 66.2 °F 85% 29.83 in 10.0 mi East 8.1 mph - N/A   Mostly Cloudy
3:15 PM 73.2 °F 66.6 °F 80% 29.82 in 10.0 mi ESE 9.2 mph - N/A   Scattered Clouds
3:35 PM 73.0 °F 66.7 °F 81% 29.80 in 10.0 mi ESE 9.2 mph - N/A   Clear
3:55 PM 73.9 °F 66.0 °F 76% 29.80 in 10.0 mi ESE 9.2 mph - N/A   Clear
4:15 PM 74.5 °F 66.2 °F 75% 29.80 in 10.0 mi ESE 6.9 mph - N/A Thunderstorm Thunderstorm
4:35 PM 75.2 °F 65.3 °F 71% 29.81 in 10.0 mi East 5.8 mph - N/A   Mostly Cloudy
4:55 PM 75.7 °F 65.5 °F 70% 29.80 in 10.0 mi East 8.1 mph - N/A   Mostly Cloudy
5:15 PM 75.7 °F 65.3 °F 70% 29.79 in 10.0 mi East 9.2 mph - N/A   Overcast
5:35 PM 75.9 °F 65.3 °F 70% 29.79 in 10.0 mi East 9.2 mph - N/A   Overcast
5:55 PM 75.2 °F 64.6 °F 69% 29.77 in 10.0 mi East 11.5 mph - N/A   Overcast
6:15 PM 75.4 °F 64.8 °F 69% 29.77 in 10.0 mi East 9.2 mph - N/A   Mostly Cloudy
6:55 PM 73.9 °F 65.3 °F 74% 29.73 in 10.0 mi East 9.2 mph - N/A   Scattered Clouds
7:15 PM 73.8 °F 65.3 °F 75% 29.74 in 10.0 mi ESE 9.2 mph - N/A   Mostly Cloudy
7:35 PM 73.4 °F 65.7 °F 77% 29.74 in 10.0 mi ESE 8.1 mph - N/A   Overcast
7:55 PM 72.5 °F 65.7 °F 79% 29.72 in 10.0 mi ESE 12.7 mph - N/A   Overcast
8:15 PM 72.5 °F 65.8 °F 80% 29.72 in 10.0 mi SE 10.4 mph - N/A   Mostly Cloudy
8:35 PM 72.5 °F 65.8 °F 80% 29.73 in 10.0 mi SE 10.4 mph - N/A   Mostly Cloudy
8:55 PM 73.6 °F 65.7 °F 76% 29.72 in 10.0 mi SE 9.2 mph - N/A Thunderstorm Overcast
9:15 PM 74.3 °F 65.5 °F 74% 29.71 in 10.0 mi SE 12.7 mph - N/A   Mostly Cloudy
9:35 PM 74.8 °F 65.7 °F 73% 29.75 in 10.0 mi SSE 5.8 mph - N/A Thunderstorm Thunderstorm
9:55 PM 69.3 °F 64.4 °F 84% 29.79 in 7.0 mi NNE 11.5 mph - 0.02 in Rain , Thunderstorm Heavy Thunderstorms and Rain
10:15 PM 67.1 °F 65.7 °F 95% 29.81 in 1.0 mi Calm Calm - 0.39 in Rain , Thunderstorm Heavy Thunderstorms and Rain
10:55 PM 67.1 °F 66.2 °F 97% 29.80 in 1.8 mi NE 4.6 mph - 0.78 in Rain Heavy Rain
11:15 PM 67.1 °F 66.2 °F 97% 29.79 in 5.0 mi East 3.5 mph - 0.07 in Rain Light Rain
11:35 PM 67.1 °F 66.4 °F 98% 29.79 in 10.0 mi NE 5.8 mph - 0.08 in Rain , Thunderstorm Light Thunderstorms and Rain
11:55 PM 67.1 °F 66.2 °F 97% 29.80 in 10.0 mi Calm Calm - 0.09 in Rain , Thunderstorm Light Thunderstorms and Rain